EW1296 Weather Reports


time (UTC)temp
C
wind
direction
speed
KPH
gust
KPH
rain 1hr
cm
rain 24hr
cm
rain mn
cm
humidity
%
barometer
mb
20260903140016 23 270 3.2 11.3 0.00 0.38 0.36 93 1015.2
20260903135537 23 270 4.8 11.3 0.00 0.38 0.36 93 1015.3
20260903135017 23 225 4.8 11.3 0.00 0.38 0.36 94 1015.2
20260903134517 23 203 6.4 14.5 0.00 0.38 0.36 94 1015.2
20260903134016 23 225 4.8 14.5 0.00 0.38 0.36 94 1015.4
20260903133517 22 225 3.2 11.3 0.00 0.38 0.36 95 1015.3
20260903133017 22 248 3.2 14.5 0.00 0.38 0.36 94 1015.4
20260903132537 22 225 4.8 12.9 0.00 0.38 0.36 94 1015.5
20260903132017 22 203 3.2 12.9 0.00 0.38 0.36 95 1015.6
20260903131516 22 225 3.2 9.7 0.00 0.38 0.36 95 1015.1
20260903131037 22 225 3.2 8.0 0.00 0.38 0.36 95 1015.3
20260903130517 22 225 3.2 9.7 0.00 0.38 0.36 95 1015.4
20260903130017 22 225 1.6 9.7 0.00 0.38 0.36 95 1015.5
20260903125539 22 248 4.8 9.7 0.00 0.38 0.36 95 1015.7
20260903125017 22 248 3.2 9.7 0.00 0.38 0.36 95 1015.7
20260903124516 22 270 1.6 6.4 0.00 0.38 0.36 95 1015.6
20260903124017 22 270 1.6 14.5 0.00 0.38 0.36 95 1015.5
20260903123538 22 225 4.8 11.3 0.00 0.38 0.36 95 1015.6
20260903123036 22 270 1.6 8.0 0.00 0.38 0.36 95 1015.4
20260903122516 21 248 3.2 9.7 0.00 0.38 0.36 95 1015.3
20260903122018 21 225 4.8 12.9 0.00 0.38 0.36 95 1015.1
20260903121538 21 225 6.4 14.5 0.00 0.38 0.36 95 1015.3
20260903121016 21 248 3.2 9.7 0.00 0.38 0.36 95 1015.7
20260903120518 21 225 4.8 11.3 0.00 0.38 0.36 95 1015.6
20260903120018 21 270 6.4 14.5 0.00 0.38 0.36 95 1015.9
20260903115516 21 270 3.2 11.3 0.00 0.38 0.36 95 1015.7
20260903115036 21 270 4.8 12.9 0.00 0.38 0.36 95 1015.9
20260903114516 21 270 6.4 14.5 0.00 0.38 0.36 95 1015.7
20260903114038 21 270 6.4 14.5 0.00 0.38 0.36 95 1015.4
20260903113516 21 270 8.0 14.5 0.00 0.38 0.36 95 1015.8
20260903113018 21 270 8.0 14.5 0.00 0.38 0.36 95 1015.6
20260903112537 21 270 6.4 11.3 0.00 0.38 0.36 95 1015.5
20260903112016 21 270 3.2 11.3 0.00 0.38 0.36 95 1015.4
20260903111516 21 270 6.4 12.9 0.00 0.38 0.36 95 1015.5
20260903111016 21 270 8.0 16.1 0.00 0.38 0.36 95 1015.5
20260903110517 21 270 4.8 12.9 0.00 0.38 0.36 95 1015.6
20260903110016 21 270 3.2 11.3 0.00 0.38 0.36 95 1015.7
20260903105516 21 270 1.6 11.3 0.00 0.38 0.36 95 1015.7
20260903105016 21 270 1.6 9.7 0.00 0.38 0.36 95 1015.5
20260903104517 21 0.0 0.0 0.00 0.38 0.36 95 1015.5
20260903104016 21 0.0 0.0 0.00 0.38 0.36 95 1015.6
20260903103516 21 248 1.6 6.4 0.00 0.38 0.36 95 1015.5
20260903103016 21 248 4.8 14.5 0.00 0.38 0.36 95 1015.5
20260903102516 21 225 3.2 12.9 0.00 0.38 0.36 95 1015.5
20260903102016 21 225 6.4 14.5 0.00 0.38 0.36 95 1015.3
20260903101516 21 225 1.6 12.9 0.00 0.38 0.36 95 1015.5
20260903101016 21 248 1.6 8.0 0.00 0.38 0.36 95 1015.6
20260903100516 21 225 4.8 12.9 0.00 0.38 0.36 95 1015.7
20260903100016 21 248 1.6 9.7 0.00 0.38 0.36 95 1015.6
20260903095517 21 225 3.2 11.3 0.00 0.38 0.36 96 1015.7
20260903095018 21 0.0 6.4 0.00 0.38 0.36 96 1015.7
20260903094517 21 270 1.6 6.4 0.00 0.38 0.36 95 1015.6
20260903094016 21 0.0 3.2 0.00 0.38 0.36 95 1015.1
20260903093537 21 225 3.2 9.7 0.03 0.38 0.36 95 1015.2
20260903093016 21 248 4.8 11.3 0.03 0.38 0.36 95 1015.2
20260903092516 21 248 6.4 12.9 0.03 0.38 0.36 95 1015.1
20260903092016 21 248 8.0 19.3 0.03 0.38 0.36 95 1015.0
20260903091536 21 225 4.8 12.9 0.03 0.38 0.36 95 1015.0
20260903091017 21 203 8.0 17.7 0.03 0.38 0.36 95 1014.7
20260903090536 21 225 6.4 14.5 0.03 0.38 0.36 95 1014.7
20260903090016 21 225 8.0 16.1 0.03 0.38 0.36 95 1015.0
20260903085536 21 225 8.0 16.1 0.03 0.38 0.36 95 1015.0
20260903085017 21 225 6.4 17.7 0.03 0.38 0.36 95 1014.7
20260903084536 21 225 1.6 12.9 0.03 0.38 0.36 95 1014.5
20260903084016 21 225 8.0 17.7 0.03 0.38 0.36 95 1015.4
20260903083516 21 225 6.4 17.7 0.00 0.36 0.33 95 1015.9
20260903083017 21 270 3.2 12.9 0.03 0.36 0.33 95 1016.2
20260903082536 21 248 4.8 12.9 0.03 0.36 0.33 95 1016.4
20260903082037 21 270 1.6 9.7 0.05 0.36 0.33 95 1016.5
20260903081618 21 248 3.2 11.3 0.05 0.36 0.33 95 1016.5
20260903081016 21 248 3.2 9.7 0.08 0.36 0.33 95 1016.2
20260903080516 21 248 4.8 9.7 0.08 0.36 0.33 95 1016.2
20260903080016 21 225 3.2 11.3 0.10 0.36 0.33 95 1015.9
20260903075517 21 0.0 1.6 0.10 0.36 0.33 95 1015.7
20260903075037 21 0.0 0.0 0.10 0.36 0.33 95 1015.8
20260903074537 21 0.0 3.2 0.13 0.36 0.33 95 1015.6
20260903074016 21 0.0 9.7 0.13 0.36 0.33 94 1015.5
20260903073517 21 225 3.2 11.3 0.13 0.36 0.33 94 1015.7
20260903073016 21 225 1.6 6.4 0.10 0.33 0.30 94 1015.8
20260903072516 21 0.0 6.4 0.10 0.33 0.30 94 1016.0
20260903072016 21 225 1.6 4.8 0.10 0.30 0.28 94 1016.1
20260903071516 21 0.0 3.2 0.10 0.30 0.28 94 1016.3
20260903071017 21 0.0 1.6 0.08 0.28 0.25 94 1016.5
20260903070516 21 0.0 4.8 0.08 0.28 0.25 94 1016.7
20260903070017 21 225 1.6 6.4 0.05 0.25 0.23 94 1016.9
20260903065516 21 248 3.2 9.7 0.05 0.25 0.23 94 1017.1
20260903065036 21 225 4.8 9.7 0.05 0.25 0.23 94 1017.1
20260903064517 21 0 1.6 9.7 0.05 0.23 0.20 94 1017.0
20260903064017 21 0 1.6 3.2 0.05 0.23 0.20 94 1016.8
20260903063516 21 0.0 3.2 0.08 0.23 0.20 94 1016.7
20260903063016 21 0.0 3.2 0.10 0.23 0.20 94 1016.7
20260903062516 21 0.0 3.2 0.10 0.23 0.20 93 1016.7
20260903062016 21 0.0 1.6 0.08 0.20 0.18 93 1016.5
20260903061517 21 0.0 1.6 0.08 0.20 0.18 93 1016.5
20260903061017 21 0.0 0.0 0.08 0.20 0.18 93 1016.4
20260903060537 21 0.0 1.6 0.10 0.20 0.18 93 1016.5
20260903060016 21 0.0 1.6 0.15 0.20 0.18 93 1016.7
20260903055516 21 0.0 3.2 0.18 0.20 0.18 93 1016.9
20260903055037 21 0.0 3.2 0.18 0.20 0.18 93 1017.1
20260903054536 21 0.0 0.0 0.15 0.18 0.15 93 1017.3
20260903054037 21 0.0 1.6 0.15 0.18 0.15 93 1017.5
20260903053516 21 0.0 1.6 0.13 0.15 0.13 93 1017.6
20260903053017 21 0.0 1.6 0.10 0.13 0.10 92 1017.6
20260903052516 21 0.0 1.6 0.10 0.13 0.10 93 1017.8
20260903052036 22 0.0 1.6 0.10 0.13 0.10 93 1018.0
20260903051516 22 0.0 4.8 0.10 0.13 0.10 93 1018.2
20260903051016 22 293 3.2 6.4 0.10 0.13 0.10 92 1018.6
20260903050516 22 315 3.2 12.9 0.08 0.10 0.10 92 1018.9
20260903050017 22 315 6.4 12.9 0.03 0.05 0.03 92 1019.0
20260903045516 22 315 4.8 8.0 0.00 0.03 0.00 92 1018.8
20260903045016 22 338 1.6 4.8 0.00 0.03 0.00 92 1018.4
20260903044516 22 0.0 0.0 0.00 0.03 0.00 92 1018.0
20260903044037 22 0.0 0.0 0.00 0.03 0.00 92 1018.1
20260903043516 22 0.0 0.0 0.00 0.03 0.00 92 1018.3
20260903043016 22 0.0 1.6 0.00 0.03 0.00 92 1018.6
20260903042515 22 0.0 0.0 0.00 0.03 0.00 92 1018.6
20260903042016 22 0.0 0.0 0.00 0.03 0.00 91 1018.7
20260903041516 22 0.0 1.6 0.00 0.03 0.00 91 1018.7
20260903041036 22 0.0 4.8 0.00 0.03 0.00 91 1018.6
20260903040516 22 0.0 1.6 0.00 0.03 0.00 91 1018.3
20260903040016 22 135 1.6 4.8 0.00 0.03 0.03 91 1018.2
20260903035517 22 135 1.6 3.2 0.00 0.03 0.03 91 1018.4
20260903035017 22 135 1.6 3.2 0.00 0.03 0.03 91 1018.5
20260903034516 22 135 1.6 6.4 0.00 0.03 0.03 91 1018.5
20260903034017 22 113 3.2 6.4 0.00 0.03 0.03 91 1018.5
20260903033516 22 135 3.2 6.4 0.00 0.03 0.03 91 1018.4
20260903033016 22 158 3.2 6.4 0.00 0.03 0.03 91 1018.3
20260903032516 22 135 3.2 8.0 0.00 0.03 0.03 91 1018.2
20260903032017 22 113 3.2 6.4 0.00 0.03 0.03 91 1018.2
20260903031536 22 113 3.2 9.7 0.00 0.03 0.03 91 1018.1
20260903031016 22 113 1.6 9.7 0.00 0.03 0.03 91 1018.3
20260903030516 22 113 4.8 9.7 0.00 0.03 0.03 91 1018.1
20260903030016 22 113 4.8 11.3 0.00 0.03 0.03 91 1018.1
20260903025516 22 113 3.2 9.7 0.00 0.03 0.03 91 1018.2
20260903025016 21 135 4.8 11.3 0.00 0.03 0.03 91 1018.1
20260903024516 21 113 4.8 9.7 0.00 0.03 0.03 90 1018.4
20260903024038 21 113 3.2 9.7 0.00 0.03 0.03 90 1018.5
20260903023516 21 135 1.6 4.8 0.00 0.03 0.03 90 1018.7
20260903023016 21 113 3.2 9.7 0.00 0.03 0.03 90 1018.8
20260903022516 21 113 3.2 9.7 0.00 0.03 0.03 90 1019.0
20260903022016 21 113 3.2 9.7 0.00 0.03 0.03 90 1018.8
20260903021516 21 113 1.6 8.0 0.00 0.03 0.03 90 1018.4
20260903021017 21 113 6.4 11.3 0.00 0.03 0.03 90 1018.4
20260903020517 21 113 3.2 11.3 0.00 0.03 0.03 89 1018.3
20260903020016 21 113 6.4 16.1 0.00 0.03 0.03 89 1018.2
20260903015517 21 135 6.4 14.5 0.00 0.03 0.03 89 1018.4
20260903015016 21 113 4.8 11.3 0.00 0.03 0.03 89 1018.5
20260903014536 21 113 4.8 12.9 0.00 0.03 0.03 89 1018.6
20260903014017 21 113 3.2 9.7 0.00 0.03 0.03 89 1019.0
20260903013537 21 113 6.4 14.5 0.00 0.03 0.03 89 1018.9
20260903013016 21 113 8.0 19.3 0.00 0.03 0.03 88 1018.7
20260903012537 21 113 6.4 12.9 0.00 0.03 0.03 88 1018.9
20260903012016 21 113 4.8 11.3 0.00 0.03 0.03 88 1019.0
20260903011516 21 113 6.4 14.5 0.00 0.03 0.03 88 1019.0
20260903011016 21 135 8.0 16.1 0.00 0.03 0.03 88 1019.1
20260903010516 21 113 4.8 9.7 0.00 0.03 0.03 88 1019.2
20260903010016 21 113 6.4 12.9 0.00 0.03 0.03 88 1019.2
20260903005516 21 113 6.4 11.3 0.00 0.03 0.03 88 1019.2
20260903005036 21 113 3.2 11.3 0.00 0.03 0.03 88 1019.4
20260903004536 21 113 3.2 6.4 0.00 0.03 0.03 88 1019.5
20260903004016 21 90 3.2 9.7 0.00 0.03 0.03 88 1019.4
20260903003516 21 113 6.4 12.9 0.00 0.03 0.03 88 1019.4
20260903003036 21 113 4.8 12.9 0.00 0.03 0.03 88 1019.3
20260903002536 21 113 6.4 14.5 0.00 0.03 0.03 88 1019.1
20260903002038 21 113 8.0 16.1 0.00 0.03 0.03 88 1019.0
20260903001516 21 113 6.4 16.1 0.00 0.03 0.03 88 1019.0
20260903001016 21 113 9.7 16.1 0.00 0.03 0.03 88 1018.9
20260903000516 21 113 4.8 14.5 0.00 0.03 0.03 88 1018.8
20260903000017 21 113 6.4 16.1 0.00 0.03 0.03 88 1018.8
20260902235516 21 113 6.4 14.5 0.00 0.03 0.03 87 1018.7
20260902235037 21 113 6.4 17.7 0.00 0.05 0.03 87 1018.9
20260902234516 21 113 6.4 11.3 0.00 0.05 0.03 87 1018.5
20260902233516 21 113 4.8 9.7 0.00 0.08 0.03 87 1018.5
20260902233016 21 113 8.0 16.1 0.00 0.08 0.03 87 1018.6
20260902232516 21 90 4.8 14.5 0.00 0.10 0.03 87 1018.5
20260902232016 21 113 6.4 14.5 0.00 0.10 0.03 87 1018.4
20260902231516 21 113 6.4 16.1 0.00 0.10 0.03 87 1018.4
20260902231016 21 113 9.7 19.3 0.00 0.10 0.03 87 1018.5
20260902230517 21 113 9.7 19.3 0.00 0.10 0.03 86 1018.5
20260902230016 21 113 8.0 17.7 0.00 0.13 0.03 86 1018.6
20260902225516 21 113 8.0 16.1 0.00 0.13 0.03 86 1018.7
20260902225016 21 113 8.0 16.1 0.00 0.13 0.03 86 1018.8
20260902224516 21 113 4.8 9.7 0.00 0.13 0.03 86 1019.1
20260902224016 21 113 6.4 12.9 0.00 0.13 0.03 86 1019.1
20260902223557 21 113 6.4 12.9 0.00 0.13 0.03 86 1019.1
20260902223016 21 113 6.4 16.1 0.00 0.20 0.03 86 1019.2
20260902222517 21 113 8.0 16.1 0.00 0.41 0.03 86 1019.2
20260902222037 21 113 9.7 19.3 0.00 0.76 0.03 85 1019.3
20260902221517 21 113 9.7 17.7 0.00 0.84 0.03 85 1019.2
20260902221016 21 113 6.4 14.5 0.00 0.86 0.03 86 1019.4
20260902220516 21 113 6.4 12.9 0.00 0.86 0.03 86 1019.6
20260902220016 21 113 4.8 11.3 0.00 0.86 0.03 86 1019.7
20260902215516 21 113 8.0 14.5 0.00 0.86 0.03 86 1019.6
20260902215016 21 113 6.4 16.1 0.00 0.86 0.03 86 1019.6
20260902214517 21 113 8.0 14.5 0.00 0.86 0.03 86 1019.7
20260902214016 21 113 8.0 14.5 0.00 0.86 0.03 86 1019.8
20260902213516 21 113 9.7 17.7 0.00 0.86 0.03 86 1019.8
20260902213017 21 113 8.0 16.1 0.00 0.86 0.03 86 1019.7
20260902212516 21 113 6.4 11.3 0.00 0.86 0.03 86 1019.6
20260902212058 21 135 4.8 9.7 0.00 0.86 0.03 86 1019.6
20260902211515 21 113 6.4 12.9 0.00 0.86 0.03 86 1019.5
20260902211037 21 113 8.0 16.1 0.00 0.86 0.03 86 1019.5
20260902210516 21 113 6.4 12.9 0.00 0.86 0.03 86 1019.5
20260902210016 21 113 4.8 12.9 0.00 0.86 0.03 87 1019.4
20260902205535 21 113 9.7 17.7 0.00 0.86 0.03 87 1019.2
20260902205016 21 113 9.7 20.9 0.00 0.86 0.03 87 1019.2
20260902204516 21 113 9.7 19.3 0.00 0.86 0.03 87 1019.3
20260902204016 21 113 9.7 17.7 0.00 0.86 0.03 87 1019.5
20260902203517 21 135 6.4 14.5 0.00 0.86 0.03 88 1019.5
20260902203015 21 135 6.4 12.9 0.00 0.86 0.03 88 1019.4
20260902202515 21 113 6.4 12.9 0.00 0.86 0.03 88 1019.5
20260902202016 21 113 6.4 14.5 0.00 0.86 0.03 88 1019.6
20260902201536 21 113 6.4 12.9 0.00 0.86 0.03 88 1019.6
20260902201016 21 113 8.0 16.1 0.00 0.86 0.03 88 1019.6
20260902200516 21 113 4.8 12.9 0.00 0.86 0.03 88 1019.6
20260902200015 21 135 6.4 14.5 0.00 0.86 0.03 88 1019.5
20260902195516 21 135 4.8 16.1 0.03 0.86 0.03 87 1019.7
20260902195016 21 135 6.4 14.5 0.03 0.86 0.03 87 1019.9
20260902194515 21 113 6.4 12.9 0.03 0.86 0.03 87 1020.1
20260902194016 21 113 4.8 11.3 0.03 0.86 0.03 86 1020.1
20260902193516 21 113 6.4 11.3 0.03 0.86 0.03 86 1020.1
20260902193015 21 113 8.0 14.5 0.03 0.86 0.03 85 1019.9
20260902192517 22 113 6.4 11.3 0.03 0.86 0.03 85 1019.9
20260902192016 22 135 4.8 11.3 0.03 0.86 0.03 85 1019.9
20260902191515 22 113 4.8 9.7 0.03 0.86 0.03 84 1020.0
20260902191015 22 135 4.8 14.5 0.03 0.86 0.03 83 1020.0
20260902190515 22 113 3.2 6.4 0.03 0.86 0.03 82 1020.0
20260902190016 22 135 4.8 11.3 0.03 0.86 0.03 81 1020.0
20260902185515 22 113 8.0 19.3 0.00 0.84 0.00 80 1019.9
20260902185015 22 113 6.4 14.5 0.00 0.84 0.00 79 1019.7
20260902184556 22 113 9.7 17.7 0.00 0.84 0.00 79 1019.7
20260902184015 22 113 8.0 14.5 0.00 0.84 0.00 78 1019.7
20260902183517 22 113 9.7 19.3 0.00 0.84 0.00 78 1019.7
20260902183015 22 113 8.0 16.1 0.00 0.84 0.00 77 1019.8
20260902182515 22 135 8.0 17.7 0.00 0.84 0.00 77 1019.8
20260902182016 23 135 8.0 16.1 0.00 0.84 0.00 76 1019.9
20260902181515 23 135 6.4 12.9 0.00 0.84 0.00 76 1020.0
20260902181015 23 113 8.0 14.5 0.00 0.84 0.00 76 1019.9
20260902180516 23 113 8.0 20.9 0.00 0.84 0.00 76 1019.9
20260902180016 23 135 8.0 20.9 0.00 0.84 0.00 76 1020.0
20260902175516 23 135 8.0 17.7 0.00 0.84 0.00 76 1020.1
20260902175035 23 135 8.0 14.5 0.00 0.84 0.00 75 1020.1
20260902174516 23 113 9.7 17.7 0.00 0.84 0.00 75 1020.1
20260902174015 23 113 8.0 16.1 0.00 0.84 0.00 74 1020.2
20260902173515 23 113 6.4 16.1 0.00 0.84 0.00 74 1020.2
20260902173015 23 113 9.7 16.1 0.00 0.84 0.00 74 1020.2
20260902172516 23 113 9.7 16.1 0.00 0.84 0.00 74 1020.2
20260902172015 23 113 6.4 14.5 0.00 0.84 0.00 74 1020.3
20260902171556 23 113 8.0 14.5 0.00 0.84 0.00 75 1020.2
20260902171018 23 135 6.4 16.1 0.00 0.84 0.00 75 1020.3
20260902170557 23 113 8.0 14.5 0.00 0.84 0.00 75 1020.4
20260902170017 23 113 6.4 12.9 0.00 0.84 0.00 75 1020.5
20260902165517 23 135 3.2 6.4 0.00 0.84 0.00 75 1020.7
20260902165017 23 113 4.8 9.7 0.00 0.84 0.00 75 1020.7
20260902164517 23 113 4.8 12.9 0.00 0.84 0.00 75 1020.6
20260902164015 23 113 4.8 11.3 0.00 0.84 0.00 74 1020.7
20260902163517 23 90 4.8 14.5 0.00 0.84 0.00 74 1020.7
20260902163019 23 113 6.4 14.5 0.00 0.84 0.00 73 1020.6
20260902162537 23 113 4.8 11.3 0.00 0.84 0.00 74 1020.5
20260902162017 23 90 4.8 12.9 0.00 0.84 0.00 74 1020.5
20260902161518 23 113 3.2 6.4 0.00 0.84 0.00 74 1020.5
20260902161017 22 90 4.8 14.5 0.00 0.84 0.00 74 1020.5
20260902160517 22 113 6.4 11.3 0.00 0.86 0.00 74 1020.4
20260902160017 22 113 6.4 12.9 0.00 0.86 0.00 74 1020.6
20260902155519 22 135 3.2 9.7 0.00 0.89 0.00 74 1020.7
20260902155017 22 113 4.8 16.1 0.00 0.89 0.00 74 1020.7
20260902154518 22 135 4.8 11.3 0.00 0.89 0.00 74 1020.8
20260902154017 22 113 4.8 9.7 0.00 0.89 0.00 74 1020.8
20260902153515 22 135 4.8 12.9 0.00 0.89 0.00 74 1020.9
20260902153037 22 113 4.8 16.1 0.00 0.91 0.00 74 1020.7
20260902152518 22 90 3.2 12.9 0.00 0.91 0.00 74 1020.7
20260902152017 22 90 4.8 12.9 0.00 0.91 0.00 74 1020.7
20260902151517 22 90 3.2 9.7 0.00 0.91 0.00 75 1020.6
20260902151017 22 113 4.8 12.9 0.00 0.91 0.00 76 1020.6
20260902150557 21 113 8.0 14.5 0.00 0.91 0.00 76 1020.5
20260902150017 21 135 4.8 11.3 0.00 0.91 0.00 77 1020.5
20260902145517 21 135 6.4 12.9 0.00 0.91 0.00 77 1020.6
20260902145037 21 135 4.8 11.3 0.00 0.91 0.00 78 1020.7
20260902144519 21 113 4.8 11.3 0.00 0.91 0.00 78 1020.8
20260902144018 21 135 3.2 8.0 0.00 0.91 0.00 79 1020.9
20260902143517 21 113 4.8 11.3 0.00 0.91 0.00 79 1021.0
20260902143017 21 113 4.8 9.7 0.00 0.91 0.00 79 1021.0
20260902142517 21 113 1.6 9.7 0.00 0.91 0.00 80 1021.0
20260902142018 21 113 1.6 11.3 0.00 0.91 0.00 80 1021.0
20260902141517 21 113 3.2 6.4 0.00 0.91 0.00 80 1020.9
20260902141017 21 158 3.2 9.7 0.00 0.91 0.00 81 1020.8
20260902140517 21 135 3.2 11.3 0.00 0.91 0.00 81 1020.7